Weather History for Sable Island, NS

Change the Weather History Date:

Tuesday, January 7, 2014

  Actual Average Record
Temperature  
Mean Temperature 37 °F -  
Max Temperature 53 °F 36 °F 53 °F (2007)
Min Temperature 21 °F 26 °F 21 °F (2004)
Degree Days  
Heating Degree Days 28    
Moisture  
Dew Point 27 °F    
Average Humidity 77    
Maximum Humidity 100    
Minimum Humidity 42    
Precipitation  
Precipitation 0.12 in - - ()
Sea Level Pressure  
Sea Level Pressure 29.61 in    
Wind  
Wind Speed 28 mph ()    
Max Wind Speed 48 mph    
Max Gust Speed 60 mph    
Visibility 2.7 miles    
Events Rain , Snow    
Averages and records for this station are not official NWS values.
T = Trace of Precipitation, MM = Missing Value Source: Averaged Metar Reports

Daily Weather History Graph

Daily Weather History Graph

Search for Another Location

Airport:

Trip Planner

Search our weather history database for the weather conditions in past years. The results will help you decide how hot, cold, wet, or windy it might be!

Date:

Astronomy

Jan. 07, 2014 Rise Set
Actual Time 7:34 AM AST 4:38 PM AST
Civil Twilight 7:01 AM AST 5:11 PM AST
Nautical Twilight 6:25 AM AST 5:47 PM AST
Astronomical Twilight 5:50 AM AST 6:22 PM AST
Moon 11:04 AM AST (1/7) No Moon Set
Length of Visible Light 10h 09m
Length of Day
9h 04m
Waxing Crescent, 45% of the Moon is Illuminated
Jan 7
Waxing Crescent
Jan 7
First Quarter
Jan 16
Full
Jan 24
Last Quarter
Jan 30
New

Hourly Weather History & Observations

Time (AST) Temp. Windchill Dew Point Humidity Pressure Visibility Wind Dir Wind Speed Gust Speed Precip Events Conditions
12:00 AM 48.2 °F - 48.2 °F 100% 29.52 in 0.1 mi South 24.2 mph - N/A Rain Light Rain
1:00 AM 50.0 °F - 50.0 °F 100% 29.48 in 0.1 mi South 25.3 mph - N/A Rain Light Rain
1:49 AM 48.2 °F - 48.2 °F 100% 29.43 in 0.1 mi South 26.5 mph 32.2 mph N/A   Overcast
2:00 AM 49 °F - 49 °F 100% 29.42 in 0 mi South 28.8 mph - -   Clear
2:00 AM 50.0 °F - 50.0 °F 100% 29.42 in 0.1 mi South 28.8 mph 34.5 mph N/A   Overcast
2:06 AM 50.0 °F - 48.2 °F 94% 29.41 in 0.1 mi South 27.6 mph 34.5 mph N/A Rain Light Rain
2:41 AM 50.0 °F - 50.0 °F 100% 29.40 in 0.1 mi South 28.8 mph 35.7 mph N/A   Overcast
3:00 AM 50.0 °F - 50.0 °F 100% 29.40 in 0.1 mi SSW 27.6 mph 40.3 mph N/A   Overcast
3:07 AM 50.0 °F - 50.0 °F 100% 29.39 in 0.1 mi South 27.6 mph 46.0 mph N/A Rain Light Rain
3:23 AM 50.0 °F - 50.0 °F 100% 29.38 in 0.1 mi South 27.6 mph 34.5 mph N/A   Overcast
4:00 AM 50.0 °F - 50.0 °F 100% 29.37 in 0.1 mi SSW 28.8 mph 36.8 mph N/A   Overcast
4:04 AM 50.0 °F - 50.0 °F 100% 29.36 in 0.1 mi SSW 25.3 mph 36.8 mph N/A Rain Light Rain
4:23 AM 48.2 °F - 48.2 °F 100% 29.34 in 0.1 mi SSW 21.9 mph 27.6 mph N/A   Overcast
4:31 AM 48.2 °F - 48.2 °F 100% 29.34 in 0.1 mi South 21.9 mph - N/A Rain Light Rain
4:52 AM 48.2 °F - 48.2 °F 100% 29.34 in 0.1 mi South 23.0 mph - N/A   Overcast
5:00 AM 47 °F - 47 °F 99% 29.34 in 0 mi South 21.9 mph - -   Clear
5:00 AM 46.4 °F 38.7 °F 46.4 °F 100% 29.34 in 0.1 mi South 20.7 mph - N/A   Overcast
5:02 AM 48.2 °F - 46.4 °F 93% 29.34 in 0.1 mi South 23.0 mph - N/A Rain Light Rain
6:00 AM 48.2 °F - 48.2 °F 100% 29.33 in 0.1 mi SSW 21.9 mph - N/A Rain Light Rain
6:10 AM 48.2 °F - 48.2 °F 100% 29.33 in 0.1 mi SSW 24.2 mph 32.2 mph N/A   Overcast
6:47 AM 44.6 °F 36.6 °F 44.6 °F 100% 29.37 in 0.1 mi WSW 19.6 mph 25.3 mph N/A   Partly Cloudy
6:51 AM 44.6 °F 36.1 °F 44.6 °F 100% 29.38 in 0.6 mi WSW 21.9 mph 28.8 mph N/A   Mostly Cloudy
6:53 AM 44.6 °F 36.4 °F 44.6 °F 100% 29.37 in 1.0 mi WSW 20.7 mph 28.8 mph N/A   Mostly Cloudy
7:00 AM 44.6 °F 36.1 °F 44.6 °F 100% 29.39 in 2.0 mi WSW 21.9 mph 31.1 mph N/A   Overcast
7:18 AM 42.8 °F 33.5 °F 42.8 °F 100% 29.39 in 3.0 mi WSW 23.0 mph 31.1 mph N/A   Overcast
7:23 AM 42.8 °F 34.0 °F 42.8 °F 100% 29.40 in 2.5 mi WSW 20.7 mph 31.1 mph N/A   Overcast
7:45 AM 42.8 °F 33.5 °F 41.0 °F 93% 29.42 in 2.5 mi WSW 23.0 mph 28.8 mph N/A   Scattered Clouds
8:00 AM 42 °F - 40 °F 88% 29.44 in 2 mi WSW 23.0 mph - -   Clear
8:00 AM 42.8 °F 33.1 °F 39.2 °F 87% 29.44 in 2.5 mi WSW 25.3 mph 31.1 mph N/A   Scattered Clouds
8:10 AM 41.0 °F 31.9 °F 39.2 °F 93% 29.43 in 3.0 mi WSW 19.6 mph 32.2 mph N/A   Overcast
8:12 AM 41.0 °F 31.4 °F 39.2 °F 93% 29.43 in 3.0 mi WSW 21.9 mph 32.2 mph N/A   Overcast
8:17 AM 41.0 °F 31.9 °F 39.2 °F 93% 29.44 in 2.5 mi WSW 19.6 mph 25.3 mph N/A   Overcast
8:27 AM 41.0 °F 31.6 °F 39.2 °F 93% 29.44 in 2.5 mi West 20.7 mph 28.8 mph N/A   Overcast
8:41 AM 41.0 °F 31.1 °F 39.2 °F 93% 29.46 in 3.0 mi WSW 23.0 mph 31.1 mph N/A   Overcast
8:45 AM 41.0 °F 30.9 °F 39.2 °F 93% 29.46 in 3.0 mi WSW 24.2 mph 31.1 mph N/A   Overcast
8:52 AM 41.0 °F 30.7 °F 37.4 °F 87% 29.47 in 3.0 mi WSW 25.3 mph 32.2 mph N/A   Mostly Cloudy
9:00 AM 41.0 °F 30.0 °F 35.6 °F 81% 29.49 in 3.0 mi WSW 28.8 mph 39.1 mph N/A   Mostly Cloudy
10:00 AM 39.2 °F 29.0 °F 32.0 °F 75% 29.52 in 5.0 mi West 21.9 mph 34.5 mph N/A   Overcast
10:41 AM 39.2 °F 28.3 °F 32.0 °F 75% 29.52 in 5.0 mi West 25.3 mph 32.2 mph N/A   Overcast
10:55 AM 39.2 °F 29.0 °F 32.0 °F 75% 29.51 in 4.0 mi West 21.9 mph 29.9 mph N/A   Overcast
11:00 AM 39 °F - 31 °F 65% 29.53 in 4 mi West 23.0 mph - -   Clear
11:00 AM 39.2 °F 28.3 °F 32.0 °F 75% 29.53 in 4.0 mi WSW 25.3 mph - N/A   Overcast
11:28 AM 39.2 °F 28.5 °F 30.2 °F 70% 29.51 in 5.0 mi West 24.2 mph 32.2 mph N/A   Overcast
11:49 AM 39.2 °F 28.7 °F 30.2 °F 70% 29.50 in 5.0 mi West 23.0 mph 36.8 mph N/A   Mostly Cloudy
12:00 PM 39.2 °F 28.5 °F 28.4 °F 65% 29.51 in 5.0 mi West 24.2 mph 36.8 mph N/A   Scattered Clouds
1:00 PM 37.4 °F 25.9 °F 26.6 °F 65% 29.51 in 6.0 mi WSW 25.3 mph 35.7 mph N/A   Partly Cloudy
2:00 PM 38 °F - 28 °F 57% 29.50 in 4 mi WSW 25.3 mph - -   Clear
2:00 PM 39.2 °F 28.3 °F 28.4 °F 65% 29.50 in 4.0 mi WSW 25.3 mph 33.4 mph N/A   Partly Cloudy
3:00 PM 39.2 °F 27.0 °F 28.4 °F 65% 29.50 in 4.0 mi WSW 32.2 mph 40.3 mph N/A   Clear
4:00 PM 37.4 °F 23.3 °F 24.8 °F 60% 29.52 in 5.0 mi WSW 40.3 mph 46.0 mph N/A   Partly Cloudy
5:00 PM 34 °F - 24 °F 55% 29.55 in 5 mi WSW 36.8 mph - -   Clear
5:00 PM 33.8 °F 18.3 °F 23.0 °F 65% 29.55 in 5.0 mi WSW 40.3 mph 48.3 mph N/A   Partly Cloudy
6:00 PM 33.8 °F 18.3 °F 19.4 °F 56% 29.59 in 5.0 mi WSW 40.3 mph 52.9 mph N/A   Partly Cloudy
6:05 PM 30.2 °F 12.0 °F 24.8 °F 80% 29.60 in 2.0 mi WSW 48.3 mph 57.5 mph N/A Snow Light Snow
6:06 PM 30.2 °F 12.7 °F 24.8 °F 80% 29.60 in 1.2 mi West 43.7 mph 57.5 mph N/A Snow Light Snow
6:07 PM 28.4 °F 11.0 °F 24.8 °F 86% 29.60 in 1.2 mi West 39.1 mph 57.5 mph N/A Snow Light Snow
6:13 PM 32.0 °F 15.6 °F 23.0 °F 69% 29.60 in 1.0 mi WSW 41.4 mph 57.5 mph N/A Snow Light Snow
6:17 PM 32.0 °F 15.8 °F 23.0 °F 69% 29.60 in 4.0 mi WSW 40.3 mph 51.8 mph N/A Snow Light Snow
6:20 PM 28.4 °F 10.0 °F 24.8 °F 86% 29.61 in 2.0 mi West 44.9 mph 55.2 mph N/A Snow Light Snow
6:21 PM 28.4 °F 9.8 °F 24.8 °F 86% 29.61 in 1.2 mi West 46.0 mph 55.2 mph N/A Snow Light Snow
6:22 PM 28.4 °F 10.0 °F 24.8 °F 86% 29.61 in 0.8 mi West 44.9 mph 55.2 mph N/A Snow Light Snow
6:23 PM 28.4 °F 10.8 °F 24.8 °F 86% 29.62 in 0.6 mi West 40.3 mph 55.2 mph N/A Snow Light Snow
6:24 PM 28.4 °F 11.6 °F 24.8 °F 86% 29.62 in 0.5 mi West 35.7 mph 55.2 mph N/A Snow Light Snow
6:25 PM 28.4 °F 12.5 °F 24.8 °F 86% 29.62 in 0.5 mi West 31.1 mph 55.2 mph N/A Snow Light Snow
6:32 PM 28.4 °F 10.8 °F 21.2 °F 74% 29.63 in 0.6 mi West 40.3 mph 55.2 mph N/A Snow Light Snow
6:33 PM 28.4 °F 11.0 °F 21.2 °F 74% 29.63 in 0.8 mi West 39.1 mph 55.2 mph N/A Snow Light Snow
6:34 PM 30.2 °F 13.3 °F 21.2 °F 69% 29.63 in 1.8 mi WSW 40.3 mph 55.2 mph N/A Snow Light Snow
6:36 PM 30.2 °F 13.9 °F 21.2 °F 69% 29.63 in 2.5 mi West 36.8 mph 55.2 mph N/A   Light Freezing Drizzle
6:44 PM 30.2 °F 14.3 °F 21.2 °F 69% 29.63 in 3.0 mi West 34.5 mph 49.5 mph N/A   Light Freezing Drizzle
6:45 PM 30.2 °F 13.3 °F 21.2 °F 69% 29.63 in 3.0 mi WSW 40.3 mph 49.5 mph N/A Snow Light Snow
6:55 PM 32.0 °F 15.4 °F 17.6 °F 55% 29.64 in 5.0 mi WSW 42.6 mph 51.8 mph N/A   Partly Cloudy
7:00 PM 30.2 °F 12.7 °F 23.0 °F 75% 29.66 in 5.0 mi WSW 43.7 mph 59.8 mph N/A   Partly Cloudy
7:04 PM 30.2 °F 13.3 °F 24.8 °F 80% 29.67 in 1.0 mi West 40.3 mph 59.8 mph N/A   Partly Cloudy
7:05 PM 26.6 °F 8.1 °F 24.8 °F 93% 29.68 in 0.5 mi West 41.4 mph 59.8 mph N/A Snow Light Snow
7:06 PM 26.6 °F 7.5 °F 24.8 °F 93% 29.68 in 0.2 mi West 44.9 mph 59.8 mph N/A Snow Light Snow
7:07 PM 26.6 °F 8.1 °F 24.8 °F 93% 29.68 in 0.2 mi West 41.4 mph 59.8 mph N/A Snow Light Snow
7:08 PM 26.6 °F 9.1 °F 23.0 °F 86% 29.68 in 0.2 mi West 35.7 mph 56.4 mph N/A Snow Light Snow
7:10 PM 26.6 °F 8.3 °F 23.0 °F 86% 29.69 in 0.1 mi West 40.3 mph 51.8 mph N/A Snow Light Snow
7:16 PM 26.6 °F 8.7 °F 21.2 °F 80% 29.69 in 0.1 mi West 38.0 mph 50.6 mph N/A Snow Light Snow
7:17 PM 26.6 °F 8.3 °F 21.2 °F 80% 29.69 in 0.8 mi West 40.3 mph 50.6 mph N/A Snow Light Snow
7:18 PM 26.6 °F 7.5 °F 19.4 °F 74% 29.69 in 0.8 mi West 44.9 mph 56.4 mph N/A   Heavy Freezing Drizzle
7:20 PM 26.6 °F 7.9 °F 19.4 °F 74% 29.69 in 1.8 mi West 42.6 mph 56.4 mph N/A   Heavy Freezing Drizzle
7:32 PM 26.6 °F 8.5 °F 19.4 °F 74% 29.72 in 3.0 mi West 39.1 mph 52.9 mph N/A   Light Freezing Drizzle
7:35 PM 26.6 °F 9.6 °F 19.4 °F 74% 29.72 in 3.0 mi West 33.4 mph 52.9 mph N/A Snow Light Snow
7:42 PM 26.6 °F 8.3 °F 15.8 °F 64% 29.72 in 5.0 mi West 40.3 mph 50.6 mph N/A   Mostly Cloudy
7:53 PM 28.4 °F 11.2 °F 14.0 °F 55% 29.74 in 6.0 mi West 38.0 mph 52.9 mph N/A   Partly Cloudy
8:00 PM 27 °F - 15 °F 48% 29.76 in 6 mi West 36.8 mph - - Snow Light Snow
8:00 PM 26.6 °F 8.7 °F 15.8 °F 64% 29.76 in 6.0 mi West 38.0 mph 50.6 mph N/A   Partly Cloudy
8:20 PM 24.8 °F 4.8 °F 15.8 °F 69% 29.77 in 4.0 mi West 46.0 mph 57.5 mph N/A Snow Light Snow
8:24 PM 24.8 °F 7.1 °F 15.8 °F 69% 29.77 in 2.2 mi West 33.4 mph 57.5 mph N/A Snow Light Snow
8:30 PM 24.8 °F 6.8 °F 15.8 °F 69% 29.78 in 2.5 mi West 34.5 mph 48.3 mph N/A Snow Light Snow
8:38 PM 26.6 °F 8.9 °F 10.4 °F 51% 29.79 in 2.5 mi West 36.8 mph 48.3 mph N/A   Mostly Cloudy
8:40 PM 24.8 °F 5.5 °F 10.4 °F 54% 29.79 in 5.0 mi West 41.4 mph 48.3 mph N/A   Mostly Cloudy
8:54 PM 26.6 °F 8.3 °F 8.6 °F 47% 29.80 in 7.0 mi West 40.3 mph 50.6 mph N/A   Scattered Clouds
9:00 PM 26.6 °F 9.3 °F 12.2 °F 55% 29.81 in 7.0 mi West 34.5 mph 48.3 mph N/A   Partly Cloudy
9:04 PM 24.8 °F 5.3 °F 12.2 °F 59% 29.82 in 5.0 mi West 42.6 mph 51.8 mph N/A Snow Light Snow
9:20 PM 24.8 °F 6.6 °F 10.4 °F 54% 29.83 in 3.0 mi West 35.7 mph 48.3 mph N/A Snow Light Snow
9:29 PM 24.8 °F 6.4 °F 12.2 °F 59% 29.83 in 6.0 mi West 36.8 mph 50.6 mph N/A   Mostly Cloudy
9:40 PM 24.8 °F 7.1 °F 10.4 °F 54% 29.84 in 6.0 mi West 33.4 mph 51.8 mph N/A   Scattered Clouds
9:42 PM 24.8 °F 6.4 °F 12.2 °F 59% 29.84 in 6.0 mi West 36.8 mph 49.5 mph N/A Snow Light Snow
9:46 PM 23.0 °F 6.0 °F 14.0 °F 68% 29.84 in 3.0 mi West 27.6 mph 43.7 mph N/A Snow Light Snow
10:00 PM 23.0 °F 4.1 °F 12.2 °F 63% 29.86 in 4.0 mi West 35.7 mph 46.0 mph N/A   Mostly Cloudy
10:03 PM 24.8 °F 6.8 °F 10.4 °F 54% 29.85 in 4.0 mi West 34.5 mph 46.0 mph N/A Snow Light Snow
10:09 PM 24.8 °F 7.1 °F 10.4 °F 54% 29.85 in 7.0 mi West 33.4 mph 43.7 mph N/A Snow Light Snow
10:13 PM 24.8 °F 6.4 °F 12.2 °F 59% 29.85 in 7.0 mi West 36.8 mph 44.9 mph N/A   Scattered Clouds
10:50 PM 21.2 °F 1.7 °F 12.2 °F 68% 29.89 in 3.0 mi West 35.7 mph 47.2 mph N/A Rain Light Freezing Rain
11:00 PM 23 °F - 9 °F 42% 29.89 in 7 mi West 33.4 mph - - Rain Light Freezing Rain
11:00 PM 23.0 °F 4.4 °F 8.6 °F 54% 29.89 in 7.0 mi West 34.5 mph 41.4 mph N/A Rain Light Freezing Rain
11:07 PM 21.2 °F 1.9 °F 12.2 °F 68% 29.89 in 2.2 mi West 34.5 mph 41.4 mph N/A Rain Light Freezing Rain
11:08 PM 21.2 °F 1.9 °F 12.2 °F 68% 29.89 in 2.0 mi West 34.5 mph 41.4 mph N/A Rain Light Freezing Rain
11:13 PM 21.2 °F 1.7 °F 10.4 °F 63% 29.90 in 1.8 mi West 35.7 mph 43.7 mph N/A Rain Light Freezing Rain
11:24 PM 23.0 °F 5.4 °F 10.4 °F 59% 29.90 in 2.5 mi West 29.9 mph 44.9 mph N/A Rain Light Freezing Rain
11:28 PM 23.0 °F 4.1 °F 10.4 °F 59% 29.91 in 6.0 mi West 35.7 mph 44.9 mph N/A Rain Light Freezing Rain
11:33 PM 21.2 °F 3.5 °F 12.2 °F 68% 29.91 in 2.5 mi West 27.6 mph 44.9 mph N/A Rain Light Freezing Rain
11:44 PM 23.0 °F 4.6 °F 10.4 °F 59% 29.91 in 2.5 mi West 33.4 mph 42.6 mph N/A Rain Light Freezing Rain
11:48 PM 23.0 °F 6.3 °F 10.4 °F 59% 29.92 in 2.5 mi West 26.5 mph 42.6 mph N/A   Partly Cloudy
11:50 PM 23.0 °F 4.6 °F 8.6 °F 54% 29.91 in 7.0 mi West 33.4 mph 42.6 mph N/A   Partly Cloudy